GW4950 Weather Reports


time (UTC)temp
F
wind
direction
speed
knots
gust
knots
rain 1hr
in
rain 24hr
in
rain mn
in
humidity
%
barometer
mb
20260510210046 50 235 0.0 0.9 0.00 0.50 0.39 82 1012.6
20260510204520 50 235 0.0 0.0 0.00 0.50 0.39 81 1012.7
20260510203012 50 225 0.0 4.3 0.00 0.50 0.39 81 1012.4
20260510201515 51 226 2.6 8.7 0.00 0.50 0.39 79 1012.1
20260510200057 52 229 6.1 14.8 0.00 0.50 0.39 77 1011.7
20260510194529 52 222 7.8 13.9 0.00 0.50 0.39 77 1011.4
20260510193010 52 233 7.0 13.0 0.00 0.50 0.39 77 1011.3
20260510191530 52 209 5.2 8.7 0.00 0.50 0.39 76 1011.2
20260510190017 52 204 7.0 13.0 0.00 0.50 0.39 74 1011.0
20260510184540 53 212 8.7 13.0 0.00 0.50 0.39 73 1010.8
20260510183031 54 211 6.1 11.3 0.00 0.50 0.39 72 1010.7
20260510181601 54 216 6.1 13.9 0.00 0.50 0.39 70 1010.8
20260510180046 55 204 8.7 15.6 0.00 0.50 0.39 67 1010.6
20260510174504 56 208 9.6 17.4 0.00 0.50 0.39 65 1010.6
20260510173058 56 211 7.0 13.9 0.00 0.50 0.39 65 1010.4
20260510171514 57 212 9.6 14.8 0.00 0.50 0.39 62 1010.3
20260510170008 57 210 7.0 10.4 0.00 0.50 0.39 62 1010.3
20260510164529 57 230 6.1 15.6 0.00 0.50 0.39 63 1010.2
20260510163016 57 201 7.8 20.0 0.00 0.50 0.39 63 1010.5
20260510161543 57 213 11.3 20.9 0.00 0.50 0.39 62 1010.3
20260510160022 57 210 13.0 20.9 0.00 0.53 0.39 59 1010.2
20260510154514 57 253 12.2 20.9 0.00 0.53 0.39 60 1010.1
20260510153003 56 216 13.0 23.5 0.00 0.53 0.39 61 1010.3
20260510151522 56 225 11.3 17.4 0.00 0.53 0.39 66 1010.3
20260510150010 56 243 12.2 24.3 0.00 0.53 0.39 69 1010.5
20260510144533 56 205 13.0 20.0 0.00 0.53 0.39 71 1010.5
20260510143018 55 216 13.0 18.2 0.00 0.53 0.39 75 1010.8
20260510141552 54 200 9.6 15.6 0.00 0.53 0.39 80 1010.9
20260510140033 52 222 13.9 17.4 0.00 0.53 0.39 81 1010.9
20260510134558 53 240 9.6 14.8 0.00 0.53 0.39 84 1010.6
20260510133047 53 185 8.7 13.0 0.00 0.53 0.39 84 1010.6
20260510131532 54 201 7.0 15.6 0.00 0.53 0.39 83 1010.4
20260510130019 53 224 7.8 13.0 0.00 0.55 0.39 85 1010.5
20260510124533 53 213 10.4 15.6 0.00 0.55 0.39 82 1010.7
20260510123024 52 202 4.3 10.4 0.00 0.55 0.39 88 1010.7
20260510121535 53 173 4.3 12.2 0.00 0.55 0.39 88 1010.6
20260510120026 53 216 6.1 12.2 0.00 0.57 0.39 90 1010.9
20260510114546 51 157 6.1 13.0 0.00 0.57 0.39 91 1011.0
20260510113031 51 208 6.1 14.8 0.00 0.57 0.39 89 1010.8
20260510111554 52 206 7.0 12.2 0.13 0.57 0.39 88 1011.1
20260510110046 51 229 9.6 15.6 0.24 0.57 0.39 87 1011.0
20260510104559 51 246 7.0 13.9 0.24 0.60 0.39 91 1010.9
20260510103050 47 243 7.8 13.0 0.24 0.60 0.39 92 1011.0
20260510101503 49 254 12.2 15.6 0.10 0.46 0.25 88 1011.0
20260510100039 51 147 5.2 12.2 0.01 0.35 0.15 90 1010.3
20260510094513 51 132 6.1 13.9 0.01 0.35 0.14 89 1010.2
20260510093105 51 150 6.1 10.4 0.01 0.35 0.14 91 1010.5
20260510091515 51 141 5.2 9.6 0.01 0.35 0.14 93 1010.6
20260510090003 50 116 6.1 10.4 0.02 0.40 0.13 94 1010.8
20260510084517 50 172 5.2 9.6 0.03 0.40 0.13 94 1010.9
20260510083005 50 134 7.8 13.9 0.03 0.40 0.13 95 1010.9
20260510081533 49 129 6.1 9.6 0.04 0.40 0.13 95 1010.9
20260510080003 49 160 5.2 9.6 0.02 0.39 0.12 96 1011.2
20260510074519 49 173 3.5 9.6 0.01 0.37 0.10 96 1011.2
20260510073104 48 158 2.6 6.1 0.01 0.37 0.10 96 1011.2
20260510071505 48 137 1.7 6.1 0.00 0.36 0.09 96 1011.1
20260510070100 48 179 1.7 6.1 0.00 0.36 0.09 96 1011.1
20260510064544 48 166 2.6 6.1 0.00 0.36 0.09 96 1011.0
20260510063038 47 194 1.7 6.1 0.02 0.36 0.09 96 1011.0
20260510061547 47 211 1.7 6.1 0.02 0.36 0.09 96 1011.0
20260510060050 47 164 0.9 4.3 0.02 0.36 0.09 96 1010.6
20260510054555 47 164 0.0 4.3 0.02 0.36 0.09 96 1010.6
20260510054507 47 164 0.0 4.3 0.02 0.36 0.09 96 1010.7
20260510053105 47 185 0.9 5.2 0.01 0.35 0.08 96 1010.7
20260510051518 47 175 1.7 4.3 0.01 0.35 0.08 96 1010.6
20260510050112 47 170 0.9 3.5 0.01 0.35 0.08 96 1010.6
20260510044542 47 163 0.9 3.5 0.01 0.34 0.07 95 1010.7
20260510043021 47 164 0.9 2.6 0.06 0.34 0.07 95 1010.7
20260510041544 47 164 0.0 2.6 0.07 0.34 0.07 95 1010.8
20260510040046 47 164 0.0 0.0 0.07 0.34 0.07 95 1010.8
20260510034506 47 164 0.0 1.7 0.06 0.33 0.06 95 1010.8
20260510033112 47 164 1.7 3.5 0.02 0.28 0.02 95 1011.0
20260510031514 47 159 1.7 3.5 0.00 0.27 0.00 95 1011.1
20260510030015 48 160 2.6 4.3 0.00 0.27 0.00 95 1011.2
20260510024517 48 157 0.9 4.3 0.00 0.27 0.00 95 1011.1
20260510023002 48 170 0.9 6.1 0.00 0.27 0.00 95 1011.4
20260510021533 48 195 2.6 6.1 0.00 0.27 0.00 95 1011.3
20260510020058 48 193 1.7 7.8 0.00 0.27 0.00 95 1011.3
20260510014542 48 172 0.9 3.5 0.00 0.27 0.00 95 1011.2
20260510013047 48 168 0.9 4.3 0.00 0.27 0.00 95 1011.1
20260510011513 48 208 3.5 6.1 0.00 0.27 0.00 94 1011.3
20260510010059 48 225 2.6 7.0 0.00 0.27 0.00 95 1011.4
20260510004518 48 206 1.7 4.3 0.00 0.27 0.00 95 1011.5
20260510003010 48 206 2.6 4.3 0.00 0.27 0.00 95 1011.6
20260510001514 48 196 2.6 7.8 0.00 0.27 0.00 94 1011.6
20260510000100 48 195 3.5 7.0 0.00 0.27 0.00 94 1011.6
20260509234530 48 195 1.7 7.0 0.00 0.27 0.27 93 1011.5
20260509233011 48 204 2.6 7.0 0.01 0.27 0.27 93 1011.7
20260509231559 48 181 2.6 5.2 0.01 0.27 0.27 92 1011.7
20260509231504 48 177 2.6 5.2 0.01 0.27 0.27 92 1011.7
20260509230004 48 180 1.7 3.5 0.01 0.27 0.27 91 1011.5
20260509224529 48 169 0.0 2.6 0.01 0.27 0.27 90 1011.4
20260509223029 49 225 1.7 5.2 0.00 0.26 0.26 87 1011.4
20260509221549 49 249 3.5 9.6 0.00 0.26 0.26 86 1011.1
20260509220029 49 255 6.1 9.6 0.01 0.26 0.26 88 1011.0
20260509214509 49 239 2.6 5.2 0.05 0.26 0.26 88 1010.8
20260509213003 49 240 4.3 12.2 0.10 0.26 0.26 85 1010.7
20260509211525 49 237 6.1 13.0 0.10 0.26 0.26 86 1010.7